Wind_Speed
77 71 71 64 66 70 71 61 63 72 78 86 90 89 87 90 93 93 95 96 99 103 106 110 118 122 126 130 133 135 139 137 129 121 124 125 123 120 118 115 109 105 103
77 75 55 63 75 69 68 70 72 74 76 82 87 90 88 87 90 94 97 101 109 112 118 121 125 130 135 136 138 140 136 122 121 125 126 126 121 116 110 103 100 93 83
58 62 69 69 71 79 77 78 74 77 88 94 93 95 98 98 99 103 108 115 115 119 124 127 131 133 136 139 136 127 120 121 123 124 121 115 109 105 99 93 84 77 72
62 63 65 69 78 74 82 81 81 80 83 87 90 97 100 101 105 110 115 118 118 123 125 129 134 138 134 119 119 121 118 120 120 116 112 104 100 92 82 76 72 67 66
61 65 72 75 82 90 86 85 88 90 92 95 96 101 106 110 113 117 119 121 124 129 137 137 132 116 117 123 120 118 121 117 115 105 97 89 81 73 69 64 64 63 59
65 69 72 77 84 86 90 96 93 93 96 97 100 102 104 110 118 119 123 130 133 129 122 112 113 121 120 118 119 118 117 112 101 88 78 73 67 64 59 60 56 55 55
64 67 68 68 73 82 88 89 92 96 100 104 107 108 111 114 119 123 124 118 107 106 109 117 120 120 119 118 117 113 106 94 81 71 65 65 63 59 56 55 51 49 49
66 67 68 69 72 75 77 81 87 89 92 97 104 109 112 114 109 100 95 99 102 109 114 118 120 118 114 109 102 94 84 74 65 58 58 59 57 57 54 52 51 47 49
66 65 67 71 75 77 81 83 85 86 87 88 91 90 85 83 84 89 95 100 108 112 113 114 109 101 93 85 78 71 65 61 56 55 55 54 54 55 54 53 50 49 50
51 53 53 54 58 59 59 58 60 66 68 72 72 75 78 81 87 92 97 104 108 107 100 91 84 78 73 66 60 55 56 56 54 54 53 54 54 54 54 53 52 51 52
37 36 37 39 41 43 46 51 55 60 63 68 71 72 75 82 89 95 101 103 97 86 78 72 67 62 59 52 49 49 50 50 52 53 54 54 54 56 55 52 52 52 55
32 30 32 35 36 38 44 49 54 59 63 66 72 75 79 86 92 95 99 89 75 68 63 58 53 49 46 45 45 46 47 48 50 53 54 56 56 57 56 55 54 53 55
28 29 31 31 35 40 46 49 54 58 63 71 76 78 85 88 90 94 87 72 64 60 56 52 47 43 41 42 43 45 47 48 49 51 53 54 54 55 55 55 55 55 57
29 30 29 31 37 43 47 49 55 60 68 74 79 82 84 87 90 88 73 65 60 54 50 46 43 41 39 40 42 43 45 46 48 49 51 52 52 53 54 54 56 56 59
30 29 30 34 39 43 47 50 56 62 70 78 83 85 89 89 90 77 65 59 52 47 44 41 40 40 41 42 44 46 46 46 48 49 51 53 54 54 56 56 59 60 62
29 29 33 36 41 43 47 49 56 62 70 76 82 84 85 86 85 70 59 51 46 42 40 39 39 41 43 45 47 49 50 51 52 54 56 57 58 59 60 60 60 61 62
30 30 33 38 41 44 45 51 58 62 68 77 82 83 82 83 80 67 56 47 42 39 37 38 39 41 44 47 50 52 54 55 56 57 58 57 58 59 59 59 58 58 56
31 31 34 39 41 42 45 51 58 65 73 78 82 83 81 82 79 67 56 47 42 41 41 40 41 43 46 49 51 54 55 57 58 58 57 55 53 52 49 48 47 46 44
31 31 34 38 39 38 45 51 57 65 72 78 80 78 77 78 79 71 60 51 46 45 44 45 47 49 51 53 55 56 56 56 54 52 49 47 45 43 41 40 39 38 37
30 32 34 37 35 38 46 51 57 65 70 76 80 78 76 76 78 70 60 51 46 46 46 48 50 52 53 53 52 50 48 46 44 43 42 40 37 35 33 32 31 31 30
30 32 34 34 33 40 46 52 57 63 69 74 78 77 76 78 81 75 64 54 48 46 48 51 53 55 53 50 47 43 40 39 37 36 34 32 30 28 26 25 25 24 24
30 32 34 32 32 41 46 52 56 61 67 73 76 76 74 77 80 80 70 59 52 49 50 53 54 52 50 46 43 39 37 35 32 31 29 26 23 21 20 19 19 19 20
31 33 33 30 34 41 46 51 56 61 64 70 75 75 76 76 80 83 74 62 54 51 52 53 51 47 43 40 39 34 31 29 27 26 24 21 18 16 15 14 14 14 15
30 33 31 30 35 41 45 51 55 60 63 67 72 74 76 76 78 83 77 66 56 52 53 53 51 47 43 40 36 31 28 26 23 21 19 18 15 13 12 12 12 13 13
31 32 30 30 36 40 45 51 55 58 62 65 70 73 74 75 78 83 81 70 58 53 53 53 50 46 43 39 35 32 29 27 25 23 20 17 15 14 13 12 12 12 12
30 31 30 31 36 40 46 50 54 58 61 64 68 71 74 75 78 81 85 73 60 53 53 53 50 46 42 37 33 30 28 26 24 22 20 18 16 15 13 12 11 11 10
Wind_Direction
224 227 230 231 235 238 248 249 253 257 257 259 263 268 271 274 279 280 281 279 283 286 286 288 290 292 293 295 294 295 296 298 298 296 294 294 293 294 294 292 293 292 290
226 230 229 240 239 238 242 242 250 252 254 256 262 266 269 272 274 276 278 281 283 286 290 290 290 292 294 295 296 296 296 295 293 293 294 293 293 294 293 293 294 292 291
225 224 225 238 241 240 240 240 248 253 254 258 263 265 268 270 273 276 281 283 285 286 289 292 293 294 294 294 294 293 291 291 292 293 293 294 293 295 295 294 294 294 293
222 223 228 233 232 235 239 242 244 250 255 259 262 264 269 273 275 279 283 287 289 289 290 291 291 291 293 292 291 290 291 291 292 294 293 294 294 294 294 295 294 294 292
224 226 224 231 235 238 241 244 249 253 255 262 266 270 273 276 279 282 284 288 287 288 288 288 291 290 291 290 290 290 291 293 295 294 293 293 292 293 294 293 292 292 290
228 229 231 236 238 242 246 247 254 259 263 269 272 276 277 277 276 280 281 281 286 287 290 289 289 292 292 292 291 292 293 294 294 293 292 290 290 291 290 290 289 287 286
237 238 240 245 248 249 253 257 263 266 269 271 272 276 277 279 280 282 285 287 289 289 289 290 291 292 291 292 292 292 292 291 290 290 289 289 290 289 288 287 285 285 286
242 245 248 252 254 256 259 262 263 266 271 272 272 274 277 279 283 286 291 291 290 291 291 292 292 292 292 291 290 290 288 287 287 286 285 285 285 286 286 285 286 288 289
249 255 259 260 260 261 262 264 268 271 271 272 275 279 284 289 294 294 296 295 296 295 294 293 292 291 290 289 288 287 285 284 285 283 283 283 281 281 282 282 284 288 290
256 261 265 262 262 264 265 267 271 274 277 279 284 288 294 295 299 300 299 299 299 298 296 294 292 291 289 287 285 282 281 285 285 284 283 282 282 282 283 285 287 289 291
259 264 267 270 273 273 272 270 271 275 280 285 291 297 301 306 305 304 304 304 302 299 297 295 293 290 288 285 281 280 281 283 282 283 282 283 284 284 286 287 288 290 291
261 263 267 269 267 265 267 271 277 283 288 297 301 304 310 311 310 310 310 308 305 301 299 297 294 290 286 283 282 282 282 282 282 282 284 284 285 287 288 288 289 289 290
258 262 269 265 265 268 273 280 286 292 300 305 307 313 316 317 316 316 314 310 306 302 301 299 295 291 286 283 284 285 284 283 282 281 282 283 285 286 287 288 288 289 291
264 271 268 261 267 273 280 289 295 303 307 311 314 319 322 323 322 322 317 313 308 304 302 299 295 291 287 287 287 287 288 288 287 287 287 287 287 287 288 289 290 291 291
266 268 260 263 271 279 287 295 302 307 313 315 319 325 327 327 327 326 322 317 312 309 305 301 297 294 292 293 294 295 295 295 294 293 292 291 290 289 289 290 290 291 291
264 262 265 270 278 286 294 303 306 313 317 319 324 328 329 329 331 330 327 322 319 315 310 304 299 296 295 293 292 292 293 293 292 290 289 289 290 290 289 289 288 288 288
261 263 271 276 285 294 305 307 313 317 321 324 327 331 333 333 336 335 332 327 325 321 314 306 300 296 295 294 294 294 293 293 292 292 291 291 290 289 287 286 285 283 283
263 267 274 281 289 302 311 313 318 323 325 326 329 333 336 339 341 339 336 331 327 325 321 316 311 305 302 301 301 300 299 299 298 298 295 293 290 287 285 283 281 280 280
265 270 275 283 295 308 312 317 323 325 327 326 330 334 338 343 345 344 340 335 331 329 325 322 319 316 313 310 307 304 302 301 300 298 297 295 292 290 288 284 281 280 278
266 272 277 286 301 310 314 320 326 327 329 330 333 336 341 345 349 347 342 337 332 330 327 324 321 319 316 314 311 308 305 304 303 301 300 297 294 291 287 283 279 275 273
265 272 277 290 304 309 316 323 327 328 331 333 334 339 342 347 350 350 347 340 336 334 331 330 327 325 323 320 317 315 312 311 309 306 304 301 298 294 289 284 279 276 273
265 272 278 293 303 308 317 324 327 329 331 333 334 340 342 346 350 352 349 344 339 337 337 334 332 329 328 326 325 323 320 318 316 314 313 311 306 302 296 291 286 281 276
264 271 280 293 302 309 318 324 326 329 332 333 335 340 343 345 349 352 351 347 343 341 341 339 338 336 334 332 330 328 328 327 323 320 318 316 313 307 301 297 292 288 284
263 271 281 292 302 311 318 323 326 330 333 334 336 341 345 347 350 353 351 349 345 344 344 345 343 342 341 340 339 339 339 337 334 333 331 325 322 318 312 306 301 297 293
261 270 281 293 303 312 320 323 328 330 333 334 338 342 347 348 350 353 352 350 348 347 347 349 347 346 345 344 344 347 349 348 349 349 346 344 344 342 335 329 321 311 303
260 271 283 294 304 313 319 323 327 329 333 335 339 344 347 348 350 352 353 352 350 349 349 351 350 349 349 351 351 354 355 355 355 352 353 355 354 353 350 345 339 333 325
Height
10653 10658 10666 10668 10668 10668 10669 10669 10667 10663 10661 10659 10653 10649 10644 10638 10631 10624 10617 10608 10602 10594 10585 10578 10570 10563 10554 10547 10539 10529 10517 10505 10496 10481 10471 10461 10451 10444 10434 10426 10417 10409 10401
10640 10647 10655 10652 10653 10654 10653 10653 10652 10649 10648 10644 10642 10633 10627 10620 10614 10605 10598 10591 10580 10571 10563 10553 10545 10538 10530 10521 10512 10500 10488 10476 10468 10454 10439 10429 10418 10412 10404 10395 10387 10378 10370
10628 10635 10638 10636 10640 10641 10640 10637 10636 10635 10633 10628 10623 10616 10609 10603 10595 10587 10578 10568 10561 10550 10541 10532 10524 10515 10506 10496 10484 10472 10461 10448 10438 10425 10410 10398 10389 10382 10375 10367 10358 10352 10347
10617 10622 10625 10625 10625 10624 10624 10624 10621 10619 10614 10610 10604 10598 10591 10585 10578 10570 10562 10552 10542 10531 10520 10512 10502 10491 10479 10465 10454 10441 10432 10419 10407 10396 10383 10371 10361 10356 10352 10344 10336 10333 10326
10605 10609 10612 10611 10612 10610 10610 10610 10608 10605 10602 10596 10592 10587 10579 10571 10562 10552 10543 10533 10522 10508 10499 10486 10475 10461 10450 10436 10424 10412 10401 10389 10377 10367 10357 10347 10340 10337 10333 10326 10319 10315 10309
10597 10599 10601 10601 10602 10602 10602 10600 10596 10593 10589 10584 10578 10571 10562 10551 10542 10534 10523 10514 10498 10483 10469 10456 10443 10432 10419 10405 10392 10381 10369 10361 10350 10341 10334 10326 10323 10320 10317 10311 10306 10300 10293
10589 10591 10593 10594 10595 10594 10592 10590 10586 10581 10577 10571 10561 10550 10540 10532 10522 10514 10504 10491 10474 10457 10443 10426 10410 10397 10387 10374 10361 10351 10342 10333 10327 10321 10315 10307 10305 10304 10300 10295 10292 10286 10279
10581 10583 10584 10584 10583 10582 10580 10577 10574 10570 10562 10553 10541 10531 10523 10518 10507 10494 10481 10465 10447 10430 10411 10393 10375 10361 10352 10342 10333 10323 10315 10311 10308 10305 10299 10294 10292 10286 10285 10281 10275 10271 10264
10570 10571 10571 10569 10569 10567 10565 10562 10559 10552 10540 10532 10524 10516 10508 10498 10485 10471 10454 10434 10414 10393 10375 10357 10343 10329 10320 10315 10308 10299 10293 10291 10292 10288 10284 10281 10277 10273 10270 10267 10262 10256 10249
10557 10557 10556 10554 10553 10552 10550 10546 10538 10531 10525 10516 10510 10502 10492 10478 10463 10442 10424 10403 10381 10358 10339 10325 10314 10304 10296 10292 10288 10284 10279 10276 10273 10270 10269 10265 10262 10258 10255 10251 10247 10241 10234
10544 10544 10543 10542 10540 10538 10535 10530 10525 10518 10512 10505 10497 10488 10474 10456 10434 10414 10391 10369 10346 10325 10312 10301 10292 10284 10278 10274 10272 10270 10268 10264 10258 10255 10251 10247 10245 10241 10239 10236 10231 10225 10217
10535 10534 10534 10532 10530 10527 10523 10518 10513 10508 10500 10491 10478 10466 10451 10433 10410 10384 10358 10336 10318 10301 10291 10282 10274 10269 10264 10260 10258 10256 10253 10250 10245 10239 10235 10231 10228 10224 10220 10216 10213 10210 10203
10527 10526 10524 10522 10520 10516 10512 10509 10503 10495 10486 10474 10459 10444 10427 10407 10382 10356 10329 10310 10297 10283 10272 10265 10259 10255 10252 10248 10246 10243 10239 10235 10232 10227 10222 10217 10213 10208 10204 10200 10195 10191 10184
10518 10517 10515 10513 10510 10506 10503 10498 10491 10482 10470 10456 10440 10423 10404 10382 10357 10331 10307 10291 10277 10268 10260 10252 10246 10242 10239 10236 10233 10229 10225 10221 10216 10211 10205 10201 10196 10191 10186 10182 10176 10173 10166
10510 10508 10506 10504 10500 10497 10493 10488 10481 10470 10456 10438 10420 10402 10379 10357 10335 10313 10292 10275 10263 10254 10246 10240 10235 10230 10227 10223 10218 10213 10208 10204 10198 10192 10186 10181 10177 10173 10168 10165 10158 10154 10148
10501 10500 10497 10494 10490 10487 10483 10480 10469 10459 10443 10426 10407 10388 10366 10343 10319 10297 10281 10265 10253 10243 10236 10230 10225 10220 10215 10210 10205 10199 10194 10189 10183 10176 10170 10165 10159 10154 10149 10145 10141 10136 10131
10492 10490 10489 10485 10482 10478 10473 10464 10456 10446 10432 10412 10393 10375 10354 10329 10306 10286 10271 10258 10246 10237 10229 10222 10217 10211 10204 10198 10190 10183 10177 10171 10164 10158 10152 10147 10141 10135 10130 10126 10122 10118 10113
10483 10482 10480 10477 10474 10470 10463 10453 10442 10429 10414 10398 10382 10362 10340 10317 10296 10277 10262 10250 10239 10229 10220 10213 10207 10200 10192 10184 10175 10166 10158 10151 10143 10137 10131 10125 10120 10115 10111 10107 10103 10100 10098
10475 10474 10471 10468 10465 10461 10453 10443 10433 10420 10404 10386 10372 10356 10337 10315 10289 10268 10252 10240 10230 10220 10211 10203 10195 10187 10178 10169 10160 10150 10141 10132 10125 10117 10111 10105 10101 10097 10094 10090 10087 10085 10083
10467 10465 10462 10460 10457 10451 10443 10433 10423 10410 10395 10377 10360 10343 10327 10308 10287 10267 10249 10235 10223 10213 10203 10194 10185 10175 10164 10153 10143 10133 10124 10116 10108 10101 10095 10091 10086 10082 10079 10076 10074 10072 10071
10458 10456 10454 10452 10448 10442 10433 10424 10413 10400 10386 10370 10352 10335 10317 10299 10279 10259 10242 10228 10217 10206 10195 10185 10173 10161 10149 10138 10128 10118 10110 10103 10096 10090 10084 10079 10075 10071 10068 10065 10062 10061 10060
10448 10447 10445 10444 10440 10433 10425 10415 10404 10392 10378 10363 10346 10330 10313 10296 10276 10256 10237 10222 10210 10199 10187 10176 10163 10150 10137 10126 10117 10108 10100 10092 10086 10080 10075 10070 10066 10062 10059 10057 10054 10053 10052
10439 10438 10437 10435 10431 10425 10416 10407 10396 10385 10371 10356 10339 10324 10307 10290 10272 10253 10234 10218 10205 10192 10181 10168 10155 10143 10131 10120 10110 10102 10094 10086 10080 10074 10070 10065 10061 10057 10054 10051 10049 10047 10046
10430 10430 10430 10427 10423 10416 10409 10399 10389 10377 10364 10350 10334 10318 10302 10284 10268 10250 10231 10214 10200 10187 10175 10161 10148 10136 10125 10115 10106 10097 10089 10082 10076 10070 10066 10062 10058 10054 10050 10047 10044 10042 10041
10422 10422 10422 10419 10415 10409 10401 10392 10382 10370 10358 10344 10329 10313 10297 10280 10264 10246 10227 10210 10195 10182 10170 10157 10145 10133 10122 10112 10104 10095 10087 10080 10073 10068 10063 10059 10055 10051 10047 10044 10041 10039 10037
10414 10414 10414 10411 10407 10400 10393 10385 10375 10363 10351 10338 10323 10308 10291 10275 10259 10242 10225 10207 10192 10179 10166 10154 10142 10130 10120 10111 10102 10094 10086 10079 10073 10067 10062 10057 10053 10049 10045 10042 10038 10036 10034